Location: Ferchesar
(52.6477°N, 12.4298°E)
Time: 01:37:27
(UTC+01:00)

Transit 2A - Pass Details

Date: 16 December 2021
Orbit: 591 x 967 km, 66.7° (Epoch: 17 January)

Event Time Altitude Azimuth Distance (km) Brightness Sun altitude
Exits shadow 03:21:32 23° 54° (NE) 1,915 8.4 -42.9°
Drops below altitude 10° 03:24:40 10° 80° (E) 2,679 9.4 -42.4°
Sets 03:27:34 0° 92° (E) 3,590 10.2 -42.0°
